Regional Weather Roundup
Issued by NWS

Home | Current Version | Previous Version | Graphics & Text | Print | Product List | Glossary On
Versions: 1 2 3 4 5 6 7 8 9 10 11 12 13 14 15 16 17 18 19 20 21 22 23 24 25 26 27 28 29 30 31 32 33 34 35 36 37 38 39 40 41 42 43 44 45 46 47 48 49 50
777
ASUS43 KFSD 161310
RWRSD

WEATHER ROUNDUP FOR SOUTH DAKOTA
NATIONAL WEATHER SERVICE SIOUX FALLS SD
800 AM CDT MON OCT 16 2017

NOTE: "FAIR" INDICATES FEW OR NO CLOUDS BELOW 12,000 FEET WITH NO
SIGNIFICANT WEATHER AND/OR OBSTRUCTIONS TO VISIBILITY.


SDZ001>005-009-010-012>017-161400-
NORTHWEST AND NORTH CENTRAL SOUTH DAKOTA

CITY           SKY/WX    TMP DP  RH WIND       PRES   REMARKS
BUFFALO          N/A     43  27  53 W8        30.01F
FAITH            N/A     36  30  79 S12       30.08F
MOBRIDGE       CLEAR     39  34  82 SE9       30.06F
$$

SDZ012>016-024>037-041>051-057-063-072>074-161400-
SOUTHWEST AND SOUTH CENTRAL SOUTH DAKOTA

CITY           SKY/WX    TMP DP  RH WIND       PRES   REMARKS
RAPID CTY ARPT CLOUDY    42  28  57 W12       30.12F
PIERRE         CLEAR     33  29  85 SE3       30.11F
CUSTER         CLOUDY    40  21  46 W5        30.20F
ELLSWORTH AFB  CLOUDY    43  25  50 W5        30.11F
PHILIP         CLOUDY    27  27 100 W5        30.12F WCI  22
PINE RIDGE     CLEAR     33  27  78 SW5       30.18F WCI  29
SPEARFISH      FAIR      45  27  49 S7        30.13F
WINNER         FAIR      46  30  53 S20       30.14F
$$

SDZ004>011-016>023-039-040-161400-
NORTHEAST SOUTH DAKOTA

CITY           SKY/WX    TMP DP  RH WIND       PRES   REMARKS
ABERDEEN       CLEAR     31  29  92 S8        30.14F WCI  23
WATERTOWN      CLEAR     34  31  88 SE6       30.16F WCI  29
BROOKINGS      CLEAR     32  30  92 SE7       30.21S WCI  26
SISSETON         N/A     41  33  73 SW8       30.13F
$$

SDZ017-020-022-023-036>040-048>070-161400-
SOUTHEAST SOUTH DAKOTA

CITY           SKY/WX    TMP DP  RH WIND       PRES   REMARKS
SIOUX FALLS    CLEAR     35  33  92 S5        30.24F
HURON          CLEAR     34  32  92 S7        30.17F WCI  28
CHAMBERLAIN    CLEAR     37  33  84 S6        30.16F
MITCHELL       CLEAR     36  33  89 S8        30.20F
YANKTON        CLEAR     32  31  96 CALM      30.25F
$$

ABBREVIATIONS USED IN REMARKS
   TC - TEMPERATURE IN CELSIUS
  WCI - WIND CHILL INDEX
   HX - HEAT INDEX
  VSB - VISIBILITY





USA.gov is the U.S. government's official web portal to all federal, state and local government web resources and services.